Danville, IL

12:38 AM CDT on April 25, 2017 (GMT -0500)
Vermilion County

Weather History for KDNV - May, 2014

Change the Weather History Date:

Wednesday, May 7, 2014

  Actual Average (KCMI) Record (KCMI)
Temperature  
Mean Temperature 72 °F -  
Max Temperature 86 °F 71 °F 89 °F (2014)
Min Temperature 59 °F 48 °F 43 °F (2006)
Cooling Degree Days 8    
Growing Degree Days 22 (Base 50)    
Moisture  
Dew Point 56 °F    
Average Humidity 55    
Maximum Humidity 73    
Minimum Humidity 41    
Precipitation  
Precipitation 0.00 in - - ()
Sea Level Pressure  
Sea Level Pressure 29.82 in    
Wind  
Wind Speed 12 mph (South)    
Max Wind Speed 21 mph    
Max Gust Speed 28 mph    
Visibility 10 miles    
Events      
Averages and records for this station are not official NWS values.
T = Trace of Precipitation, MM = Missing Value Source: NWS Daily Summary

Daily Weather History Graph

Daily Weather History Graph

Search for Another Location

Airport or City:

Trip Planner

Search our weather history database for the weather conditions in past years. The results will help you decide how hot, cold, wet, or windy it might be!

Date:

Astronomy

May. 07, 2014 Rise Set
Actual Time 5:42 AM CDT 7:51 PM CDT
Civil Twilight 5:12 AM CDT 8:21 PM CDT
Nautical Twilight 4:36 AM CDT 8:58 PM CDT
Astronomical Twilight 3:56 AM CDT 9:38 PM CDT
Moon 12:55 PM CDT (5/7) 1:42 AM CDT (5/7)
Length of Visible Light 15h 08m
Length of Day
14h 08m
First Quarter, 55% of the Moon is Illuminated
May 7
First Quarter
May 14
Full
May 21
Last Quarter
May 28
New
Jun 5
First Quarter

Hourly Weather History & Observations

Time (CDT) Temp. Heat Index Dew Point Humidity Pressure Visibility Wind Dir Wind Speed Gust Speed Precip Events Conditions
12:15 AM 64.4 °F - 48.4 °F 56% 29.81 in 10.0 mi ESE 12.7 mph - N/A   Clear
12:35 AM 63.5 °F - 48.4 °F 58% 29.82 in 10.0 mi ESE 6.9 mph - N/A   Clear
12:55 AM 62.8 °F - 48.4 °F 59% 29.82 in 10.0 mi East 9.2 mph - N/A   Clear
1:15 AM 62.8 °F - 48.6 °F 60% 29.80 in 10.0 mi East 10.4 mph - N/A   Clear
1:35 AM 62.6 °F - 48.7 °F 60% 29.79 in 10.0 mi ESE 12.7 mph - N/A   Clear
1:55 AM 62.2 °F - 48.6 °F 61% 29.80 in 10.0 mi SE 6.9 mph - N/A   Clear
2:15 AM 60.6 °F - 48.6 °F 64% 29.80 in 10.0 mi ESE 6.9 mph - N/A   Clear
2:35 AM 60.1 °F - 48.6 °F 66% 29.81 in 10.0 mi Calm Calm - N/A   Clear
2:55 AM 59.4 °F - 48.7 °F 68% 29.80 in 10.0 mi ESE 8.1 mph - N/A   Clear
3:15 AM 59.9 °F - 49.1 °F 67% 29.80 in 10.0 mi ESE 6.9 mph - N/A   Clear
3:35 AM 60.8 °F - 50.2 °F 68% 29.79 in 10.0 mi ESE 9.2 mph - N/A   Clear
3:55 AM 60.8 °F - 50.2 °F 68% 29.79 in 10.0 mi SE 6.9 mph - N/A   Clear
4:15 AM 59.9 °F - 50.2 °F 70% 29.78 in 10.0 mi SE 6.9 mph - N/A   Clear
4:35 AM 59.9 °F - 50.9 °F 72% 29.78 in 10.0 mi SSE 6.9 mph - N/A   Clear
4:55 AM 60.6 °F - 51.4 °F 72% 29.78 in 10.0 mi SSE 8.1 mph - N/A   Clear
5:15 AM 60.8 °F - 52.2 °F 73% 29.78 in 10.0 mi South 9.2 mph - N/A   Clear
5:35 AM 64.8 °F - 52.5 °F 64% 29.79 in 10.0 mi South 11.5 mph - N/A   Clear
5:55 AM 64.2 °F - 52.7 °F 66% 29.79 in 10.0 mi SSW 12.7 mph - N/A   Clear
6:15 AM 64.4 °F - 52.7 °F 66% 29.79 in 10.0 mi South 12.7 mph - N/A   Clear
6:35 AM 64.6 °F - 52.9 °F 66% 29.80 in 10.0 mi South 12.7 mph - N/A   Clear
6:55 AM 65.5 °F - 53.6 °F 65% 29.80 in 10.0 mi South 12.7 mph 17.3 mph N/A   Clear
7:15 AM 67.5 °F - 53.8 °F 61% 29.81 in 10.0 mi South 11.5 mph - N/A   Clear
7:35 AM 68.2 °F - 54.1 °F 61% 29.82 in 10.0 mi SSW 15.0 mph 21.9 mph N/A   Clear
7:55 AM 68.7 °F - 54.5 °F 60% 29.83 in 10.0 mi SSW 15.0 mph 20.7 mph N/A   Clear
8:15 AM 70.2 °F - 55.4 °F 59% 29.83 in 10.0 mi SSW 17.3 mph 24.2 mph N/A   Clear
8:35 AM 71.2 °F - 55.9 °F 58% 29.84 in 10.0 mi SSW 19.6 mph 25.3 mph N/A   Clear
8:55 AM 72.1 °F - 56.5 °F 58% 29.84 in 10.0 mi SW 16.1 mph 24.2 mph N/A   Clear
9:15 AM 72.1 °F - 56.7 °F 58% 29.84 in 10.0 mi SW 16.1 mph - N/A   Clear
9:35 AM 72.7 °F - 57.4 °F 59% 29.84 in 10.0 mi SSW 16.1 mph 20.7 mph N/A   Clear
9:55 AM 74.3 °F - 57.6 °F 56% 29.83 in 10.0 mi SSW 16.1 mph - N/A   Clear
10:15 AM 75.4 °F - 58.1 °F 55% 29.83 in 10.0 mi SSW 13.8 mph 20.7 mph N/A   Clear
10:35 AM 76.3 °F - 58.3 °F 54% 29.83 in 10.0 mi SSW 15.0 mph 20.7 mph N/A   Clear
10:55 AM 77.4 °F - 58.5 °F 52% 29.84 in 10.0 mi SSW 16.1 mph 23.0 mph N/A   Clear
11:15 AM 77.5 °F - 58.5 °F 52% 29.83 in 10.0 mi SSW 11.5 mph 18.4 mph N/A   Clear
11:35 AM 79.7 °F - 59.2 °F 49% 29.83 in 10.0 mi SW 10.4 mph 17.3 mph N/A   Clear
11:55 AM 80.6 °F 81.2 °F 59.5 °F 49% 29.83 in 10.0 mi South 13.8 mph 18.4 mph N/A   Clear
12:15 PM 81.5 °F 82.0 °F 60.1 °F 48% 29.82 in 10.0 mi South 13.8 mph 19.6 mph N/A   Clear
12:35 PM 82.6 °F 82.8 °F 60.1 °F 46% 29.82 in 10.0 mi South 16.1 mph 20.7 mph N/A   Clear
12:55 PM 84.0 °F 84.4 °F 61.0 °F 46% 29.82 in 7.0 mi SSW 15.0 mph 19.6 mph N/A   Clear
1:15 PM 84.6 °F 84.8 °F 61.3 °F 45% 29.82 in 7.0 mi SSW 15.0 mph 18.4 mph N/A   Scattered Clouds
1:35 PM 84.9 °F 85.0 °F 60.6 °F 44% 29.82 in 10.0 mi South 16.1 mph 23.0 mph N/A   Scattered Clouds
1:55 PM 85.6 °F 85.4 °F 60.4 °F 42% 29.81 in 10.0 mi South 18.4 mph - N/A   Clear
2:15 PM 85.5 °F 85.4 °F 60.6 °F 43% 29.81 in 10.0 mi SSW 18.4 mph 26.5 mph N/A   Clear
2:35 PM 86.4 °F 86.3 °F 61.0 °F 42% 29.81 in 10.0 mi South 17.3 mph 27.6 mph N/A   Clear
2:55 PM 85.8 °F 85.7 °F 60.4 °F 42% 29.80 in 10.0 mi SSW 17.3 mph 24.2 mph N/A   Clear
3:15 PM 85.8 °F 85.7 °F 60.1 °F 42% 29.80 in 10.0 mi South 16.1 mph 24.2 mph N/A   Clear
3:35 PM 85.5 °F 85.2 °F 60.3 °F 42% 29.78 in 10.0 mi South 18.4 mph 24.2 mph N/A   Clear
3:55 PM 85.1 °F 85.0 °F 60.4 °F 43% 29.79 in 10.0 mi South 16.1 mph - N/A   Clear
4:15 PM 85.3 °F 84.8 °F 59.2 °F 41% 29.80 in 10.0 mi South 19.6 mph 26.5 mph N/A   Clear
4:35 PM 83.8 °F 83.4 °F 58.6 °F 42% 29.80 in 10.0 mi South 19.6 mph 25.3 mph N/A   Clear
4:55 PM 84.4 °F 84.0 °F 58.8 °F 42% 29.80 in 10.0 mi South 20.7 mph - N/A   Clear
5:15 PM 83.3 °F 83.2 °F 59.0 °F 44% 29.81 in 10.0 mi South 16.1 mph 23.0 mph N/A   Clear
5:35 PM 83.5 °F 83.1 °F 57.9 °F 42% 29.80 in 10.0 mi South 16.1 mph - N/A   Clear
5:55 PM 82.0 °F 81.8 °F 57.4 °F 43% 29.80 in 10.0 mi SSE 11.5 mph 20.7 mph N/A   Clear
6:15 PM 81.9 °F 81.8 °F 58.1 °F 44% 29.81 in 10.0 mi South 15.0 mph - N/A   Clear
6:35 PM 80.6 °F 80.8 °F 57.7 °F 45% 29.81 in 10.0 mi South 17.3 mph 26.5 mph N/A   Clear
6:55 PM 79.9 °F - 57.9 °F 47% 29.81 in 10.0 mi South 16.1 mph 21.9 mph N/A   Clear
7:15 PM 78.6 °F - 57.9 °F 49% 29.82 in 10.0 mi South 12.7 mph 18.4 mph N/A   Clear
7:35 PM 77.5 °F - 58.6 °F 52% 29.82 in 10.0 mi South 11.5 mph - N/A   Clear
7:55 PM 76.5 °F - 58.6 °F 54% 29.84 in 10.0 mi South 8.1 mph - N/A   Clear
8:15 PM 74.8 °F - 58.8 °F 57% 29.85 in 10.0 mi South 8.1 mph - N/A   Clear
8:35 PM 74.5 °F - 59.0 °F 58% 29.85 in 10.0 mi South 6.9 mph - N/A   Clear
8:55 PM 73.4 °F - 59.0 °F 61% 29.85 in 10.0 mi South 9.2 mph - N/A   Clear
9:15 PM 72.9 °F - 58.6 °F 61% 29.85 in 10.0 mi South 10.4 mph - N/A   Clear
9:35 PM 73.6 °F - 58.1 °F 58% 29.85 in 10.0 mi South 10.4 mph - N/A   Clear
9:55 PM 73.2 °F - 57.7 °F 58% 29.85 in 10.0 mi SSE 9.2 mph - N/A   Clear
10:15 PM 72.5 °F - 57.6 °F 59% 29.85 in 10.0 mi SSE 10.4 mph - N/A   Clear
10:35 PM 71.1 °F - 57.6 °F 62% 29.85 in 10.0 mi South 9.2 mph - N/A   Clear
10:55 PM 70.9 °F - 57.4 °F 62% 29.85 in 10.0 mi South 12.7 mph - N/A   Clear
11:15 PM 71.6 °F - 56.8 °F 60% 29.85 in 10.0 mi South 13.8 mph - N/A   Clear
11:35 PM 71.6 °F - 57.2 °F 60% 29.85 in 10.0 mi South 12.7 mph - N/A   Clear
11:55 PM 71.4 °F - 56.3 °F 59% 29.84 in 10.0 mi South 16.1 mph - N/A   Clear